EW5053 Weather Reports


time (UTC)temp
C
wind
direction
speed
KPH
gust
KPH
rain 1hr
cm
rain 24hr
cm
rain mn
cm
humidity
%
barometer
mb
20260507142503 12 338 4.8 11.3 0.00 0.00 0.00 51 1014.9
20260507142004 12 331 4.8 9.7 0.00 0.00 0.00 52 1014.9
20260507140504 12 309 8.0 11.3 0.00 0.00 0.00 50 1015.3
20260507140004 11 292 6.4 16.1 0.00 0.00 0.00 52 1015.0
20260507135504 12 305 4.8 16.1 0.00 0.00 0.00 52 1015.3
20260507135006 12 322 12.9 16.1 0.00 0.00 0.00 55 1015.2
20260507134504 12 339 3.2 11.3 0.00 0.00 0.00 60 1015.2
20260507133504 11 3 8.0 9.7 0.00 0.00 0.00 57 1015.2
20260507133004 11 13 3.2 11.3 0.00 0.00 0.00 59 1015.2
20260507132003 11 326 4.8 8.0 0.00 0.00 0.00 64 1015.0
20260507131504 10 353 4.8 8.0 0.00 0.00 0.00 64 1015.0
20260507131004 10 357 4.8 8.0 0.00 0.00 0.00 64 1015.0
20260507130504 10 349 4.8 6.4 0.00 0.00 0.00 65 1014.9
20260507130004 10 354 4.8 8.0 0.00 0.00 0.00 67 1015.0
20260507125505 10 340 0.0 9.7 0.00 0.00 0.00 68 1015.0
20260507125004 9 327 3.2 9.7 0.00 0.00 0.00 69 1015.1
20260507123503 8 355 6.4 8.0 0.00 0.00 0.00 74 1015.3
20260507123004 8 335 4.8 8.0 0.00 0.00 0.00 75 1015.3
20260507122504 8 325 4.8 8.0 0.00 0.00 0.00 76 1015.4
20260507122005 7 318 3.2 8.0 0.00 0.00 0.00 78 1015.4
20260507121504 7 315 3.2 8.0 0.00 0.00 0.00 86 1015.4
20260507121005 7 322 1.6 8.0 0.00 0.00 0.00 88 1015.2
20260507120005 6 320 4.8 8.0 0.00 0.00 0.00 94 1015.2
20260507115504 6 325 3.2 8.0 0.00 0.00 0.00 96 1015.4
20260507115004 6 314 1.6 6.4 0.00 0.00 0.00 97 1015.0
20260507114504 6 307 4.8 6.4 0.00 0.00 0.00 98 1015.1
20260507114004 5 304 3.2 4.8 0.00 0.00 0.00 98 1015.1
20260507113504 5 293 3.2 3.2 0.00 0.00 0.00 98 1015.0
20260507112503 5 261 0.0 1.6 0.00 0.00 0.00 97 1014.9
20260507112004 4 261 0.0 1.6 0.00 0.00 0.00 97 1014.8
20260507111506 4 0 0.0 0.0 0.00 0.00 0.00 97 1014.7
20260507111004 4 0 0.0 0.0 0.00 0.00 0.00 96 1014.7
20260507110504 4 0 0.0 0.0 0.00 0.00 0.00 96 1014.7
20260507110004 4 0 0.0 0.0 0.00 0.00 0.00 96 1014.7
20260507105504 4 0 0.0 0.0 0.00 0.00 0.00 96 1014.5
20260507105004 4 0 0.0 0.0 0.00 0.00 0.00 95 1014.6
20260507104504 4 0 0.0 0.0 0.00 0.00 0.00 95 1014.4
20260507104004 4 0 0.0 0.0 0.00 0.00 0.00 95 1014.4
20260507103504 4 0 0.0 0.0 0.00 0.00 0.00 95 1014.3
20260507103004 4 0 0.0 0.0 0.00 0.00 0.00 95 1014.3
20260507102006 4 171 0.0 1.6 0.00 0.00 0.00 95 1014.4
20260507101504 5 0 0.0 0.0 0.00 0.00 0.00 95 1014.7
20260507101003 5 0 0.0 0.0 0.00 0.00 0.00 96 1014.5
20260507100504 5 0 0.0 0.0 0.00 0.00 0.00 96 1014.3
20260507100005 5 0 0.0 0.0 0.00 0.00 0.00 96 1014.4
20260507095505 5 0 0.0 0.0 0.00 0.00 0.00 96 1014.3
20260507094505 4 317 0.0 3.2 0.00 0.00 0.00 95 1014.5
20260507094004 4 261 0.0 1.6 0.00 0.00 0.00 95 1014.3
20260507093504 4 0 0.0 0.0 0.00 0.00 0.00 95 1014.3
20260507093005 4 0 0.0 0.0 0.00 0.00 0.00 95 1014.3
20260507092004 5 0 0.0 0.0 0.00 0.03 0.00 96 1014.1
20260507091504 5 0 0.0 0.0 0.00 0.03 0.00 96 1014.1
20260507091005 5 0 0.0 0.0 0.00 0.03 0.00 96 1014.3
20260507090504 5 0 0.0 0.0 0.00 0.03 0.00 96 1014.3
20260507090004 5 0 0.0 0.0 0.00 0.03 0.00 96 1014.2
20260507085504 5 325 0.0 1.6 0.00 0.03 0.00 96 1014.1
20260507085004 5 325 0.0 1.6 0.00 0.03 0.00 96 1014.3
20260507084505 5 0 0.0 0.0 0.00 0.03 0.00 96 1014.1
20260507084004 5 0 0.0 0.0 0.00 0.03 0.00 96 1014.1
20260507083004 5 0 0.0 0.0 0.00 0.03 0.00 96 1014.2
20260507082505 5 0 0.0 0.0 0.00 0.03 0.00 96 1014.0
20260507082005 5 0 0.0 0.0 0.00 0.03 0.00 96 1013.9
20260507081004 5 0 0.0 0.0 0.00 0.03 0.00 96 1014.1
20260507080504 5 0 0.0 0.0 0.00 0.03 0.00 96 1014.2
20260507080004 5 0 0.0 0.0 0.00 0.03 0.00 96 1013.9
20260507075503 5 0 0.0 0.0 0.00 0.05 0.00 96 1013.9
20260507075004 5 0 0.0 0.0 0.00 0.05 0.00 96 1014.0
20260507074504 5 0 0.0 0.0 0.00 0.08 0.00 96 1014.0
20260507074004 5 0 0.0 0.0 0.00 0.13 0.00 96 1014.1
20260507073504 5 0 0.0 0.0 0.00 0.20 0.00 96 1014.3
20260507073004 5 0 0.0 0.0 0.00 0.23 0.00 96 1014.0
20260507072504 5 0 0.0 0.0 0.00 0.25 0.00 96 1014.2
20260507071505 5 0 0.0 0.0 0.00 0.30 0.00 96 1014.1
20260507071004 5 0 0.0 0.0 0.00 0.30 0.00 96 1014.0
20260507070504 5 0 0.0 0.0 0.00 0.30 0.00 95 1014.0
20260507070009 5 0 0.0 0.0 0.00 0.30 0.00 95 1014.1
20260507065504 5 0 0.0 0.0 0.00 0.36 0.00 95 1013.9
20260507065005 5 0 0.0 0.0 0.00 0.36 0.00 95 1014.1
20260507064004 5 0 0.0 0.0 0.00 0.46 0.00 95 1014.1
20260507063505 5 0 0.0 0.0 0.00 0.48 0.00 95 1014.1
20260507063004 6 0 0.0 0.0 0.00 0.51 0.00 95 1014.2
20260507062505 6 0 0.0 0.0 0.00 0.53 0.00 94 1014.2
20260507062004 6 0 0.0 0.0 0.00 0.58 0.00 94 1014.0
20260507061504 6 0 0.0 0.0 0.00 0.61 0.00 94 1014.3
20260507061004 6 0 0.0 0.0 0.00 0.64 0.00 94 1014.2
20260507060004 6 0 0.0 0.0 0.00 0.74 0.00 93 1014.2
20260507055504 6 0 0.0 0.0 0.00 0.79 0.00 93 1014.1
20260507055004 6 0 0.0 0.0 0.00 0.81 0.00 93 1014.2
20260507054004 6 0 0.0 0.0 0.00 0.84 0.00 92 1014.3
20260507053503 6 0 0.0 0.0 0.00 0.86 0.00 92 1014.2
20260507053004 6 0 0.0 0.0 0.00 0.91 0.00 92 1014.2
20260507052505 6 0 0.0 0.0 0.00 0.97 0.00 92 1014.2
20260507052004 6 0 0.0 0.0 0.00 0.97 0.00 92 1014.3
20260507051503 6 0 0.0 0.0 0.00 0.97 0.00 92 1014.1
20260507050504 6 0 0.0 0.0 0.00 0.97 0.00 91 1014.4
20260507050005 6 0 0.0 0.0 0.00 0.97 0.00 91 1014.4
20260507045505 6 0 0.0 0.0 0.00 0.99 0.00 91 1014.4
20260507045004 6 0 0.0 0.0 0.00 1.02 0.00 90 1014.4
20260507044503 6 0 0.0 0.0 0.00 1.04 0.00 89 1014.7
20260507044004 7 0 0.0 0.0 0.00 1.07 0.00 89 1014.7
20260507043505 7 0 0.0 0.0 0.00 1.07 0.00 89 1014.7
20260507043004 7 0 0.0 0.0 0.00 1.07 0.00 88 1014.6
20260507042504 7 0 0.0 0.0 0.00 1.07 0.00 88 1014.6
20260507042005 7 217 0.0 1.6 0.00 1.09 0.00 87 1014.5
20260507041004 7 217 0.0 1.6 0.00 1.09 0.00 81 1014.4
20260507040505 7 0 0.0 0.0 0.00 1.09 0.00 80 1014.3
20260507035503 7 0 0.0 0.0 0.00 1.09 1.09 79 1014.4
20260507035004 8 0 0.0 0.0 0.00 1.12 1.09 79 1014.3
20260507034505 8 0 0.0 0.0 0.00 1.12 1.09 79 1014.2
20260507034004 8 0 0.0 0.0 0.00 1.12 1.09 78 1014.5
20260507033504 8 0 0.0 0.0 0.00 1.12 1.09 78 1014.5
20260507033005 8 0 0.0 0.0 0.00 1.12 1.09 77 1014.6
20260507032504 8 0 0.0 0.0 0.00 1.12 1.09 77 1014.6
20260507032004 8 0 0.0 0.0 0.00 1.12 1.09 76 1014.3
20260507031004 8 0 0.0 0.0 0.00 1.17 1.09 75 1014.6
20260507030504 9 0 0.0 0.0 0.00 1.19 1.09 75 1014.5
20260507030005 9 0 0.0 0.0 0.00 1.32 1.09 75 1014.5
20260507025504 9 0 0.0 0.0 0.00 1.35 1.09 75 1014.4
20260507024004 10 0 0.0 0.0 0.00 1.42 1.09 74 1014.6
20260507023504 10 0 0.0 0.0 0.00 1.42 1.09 73 1014.6
20260507022504 11 0 0.0 0.0 0.00 1.42 1.09 71 1014.5
20260507022004 11 0 0.0 0.0 0.00 1.45 1.09 71 1014.2
20260507021504 11 0 0.0 0.0 0.00 1.45 1.09 70 1014.4
20260507021005 11 0 0.0 0.0 0.00 1.45 1.09 68 1014.5
20260507020503 11 0 0.0 0.0 0.00 1.45 1.09 66 1014.3
20260507020004 11 0 0.0 0.0 0.00 1.45 1.09 66 1014.3
20260507015504 11 0 0.0 0.0 0.00 1.47 1.09 66 1014.3
20260507015004 11 261 0.0 1.6 0.00 1.47 1.09 66 1014.3
20260507014504 11 261 0.0 1.6 0.00 1.47 1.09 66 1014.4
20260507013505 12 324 0.0 1.6 0.00 1.52 1.09 64 1014.1
20260507012504 12 334 0.0 4.8 0.00 1.52 1.09 64 1014.1
20260507012005 12 342 0.0 4.8 0.00 1.52 1.09 62 1013.9
20260507011503 12 324 1.6 6.4 0.00 1.52 1.09 58 1013.7
20260507010504 12 317 4.8 6.4 0.00 1.52 1.09 58 1013.9
20260507010004 12 335 0.0 1.6 0.00 1.52 1.09 59 1013.7
20260507005504 12 351 0.0 1.6 0.00 1.52 1.09 57 1013.9
20260507004505 13 327 0.0 8.0 0.00 1.52 1.09 55 1013.9
20260507004003 13 326 0.0 8.0 0.00 1.52 1.09 56 1013.9
20260507003504 13 335 6.4 8.0 0.00 1.52 1.09 55 1013.6
20260507003005 13 329 1.6 4.8 0.00 1.52 1.09 55 1013.8
20260507002505 13 297 1.6 4.8 0.00 1.55 1.09 55 1013.6
20260507002005 13 289 1.6 3.2 0.00 1.57 1.09 54 1013.8
20260507001504 13 319 1.6 8.0 0.00 1.57 1.09 55 1013.6
20260507001007 13 325 1.6 8.0 0.00 1.60 1.09 54 1013.6
20260507000504 13 321 3.2 8.0 0.00 1.60 1.09 54 1013.7
20260507000007 14 327 3.2 8.0 0.00 1.63 1.09 55 1013.5
20260506235503 14 323 1.6 11.3 0.00 1.63 1.09 56 1013.3
20260506235004 14 322 0.0 11.3 0.00 1.63 1.09 55 1013.3
20260506234504 14 328 8.0 11.3 0.00 1.65 1.09 54 1013.3
20260506234004 13 324 4.8 9.7 0.00 1.68 1.09 54 1013.0
20260506233005 14 350 1.6 14.5 0.00 1.70 1.09 55 1013.2
20260506232004 14 348 8.0 16.1 0.00 1.70 1.09 54 1012.7
20260506231504 14 15 6.4 11.3 0.00 1.73 1.09 54 1012.7
20260506230503 14 329 4.8 9.7 0.00 1.73 1.09 54 1012.5
20260506230004 14 343 8.0 9.7 0.00 1.73 1.09 53 1013.0
20260506225505 14 344 1.6 9.7 0.00 1.73 1.09 54 1012.7
20260506225004 14 339 4.8 11.3 0.00 1.73 1.09 54 1012.7
20260506224504 14 346 3.2 14.5 0.00 1.73 1.09 51 1012.7
20260506224004 14 337 4.8 14.5 0.00 1.73 1.09 52 1013.2
20260506223503 14 339 4.8 14.5 0.00 1.73 1.09 53 1013.2
20260506223005 14 351 3.2 12.9 0.00 1.73 1.09 49 1013.0
20260506222504 15 343 4.8 12.9 0.00 1.73 1.09 49 1013.0
20260506222005 15 329 4.8 11.3 0.00 1.73 1.09 52 1013.0
20260506221504 15 321 4.8 12.9 0.00 1.73 1.09 52 1012.9
20260506221004 15 319 6.4 12.9 0.00 1.73 1.09 54 1013.0
20260506220504 15 328 8.0 12.9 0.00 1.73 1.09 52 1013.3
20260506220004 15 329 8.0 12.9 0.00 1.73 1.09 53 1013.4
20260506215505 15 340 8.0 11.3 0.00 1.75 1.09 53 1013.3
20260506215004 15 349 4.8 11.3 0.00 1.75 1.09 54 1013.1
20260506214504 15 345 4.8 8.0 0.00 1.78 1.09 54 1013.0
20260506214004 15 345 8.0 8.0 0.00 1.78 1.09 54 1013.1
20260506213504 15 339 6.4 12.9 0.00 1.78 1.09 53 1013.0
20260506213004 15 328 4.8 12.9 0.00 1.78 1.09 52 1012.8
20260506212504 15 314 6.4 12.9 0.00 1.80 1.09 52 1012.8
20260506212004 15 302 6.4 12.9 0.00 1.80 1.09 49 1012.6
20260506211004 15 317 4.8 9.7 0.00 1.88 1.09 49 1012.6
20260506210504 15 309 6.4 9.7 0.00 1.88 1.09 48 1012.7
20260506210004 16 316 4.8 9.7 0.00 1.88 1.09 53 1012.6
20260506205503 16 333 3.2 11.3 0.00 1.88 1.09 49 1012.7
20260506205004 16 327 1.6 11.3 0.00 1.88 1.09 50 1012.5
20260506204504 16 327 8.0 14.5 0.00 1.88 1.09 49 1012.7
20260506204004 16 328 9.7 14.5 0.00 1.88 1.09 50 1012.7
20260506203504 16 335 4.8 14.5 0.00 1.88 1.09 51 1012.7
20260506203004 16 342 1.6 11.3 0.00 1.88 1.09 50 1012.6
20260506202504 16 352 8.0 11.3 0.00 1.88 1.09 46 1012.6
20260506201504 16 16 3.2 9.7 0.00 1.88 1.09 51 1012.6
20260506201004 16 21 4.8 9.7 0.00 1.88 1.09 48 1012.2
20260506200004 16 65 4.8 11.3 0.00 1.88 1.09 50 1012.9
20260506195504 16 126 9.7 11.3 0.00 1.88 1.09 49 1012.8
20260506195004 16 57 1.6 8.0 0.00 1.88 1.09 49 1012.9
20260506194504 17 22 1.6 9.7 0.00 1.88 1.09 50 1012.9
20260506194004 16 352 6.4 9.7 0.00 1.88 1.09 47 1012.9
20260506193504 16 333 4.8 12.9 0.00 1.88 1.09 53 1012.4
20260506193005 16 313 3.2 12.9 0.00 1.88 1.09 47 1012.5
20260506192504 16 312 6.4 12.9 0.00 1.88 1.09 47 1012.5
20260506191504 16 54 8.0 11.3 0.00 1.88 1.09 52 1012.5
20260506191009 16 15 6.4 9.7 0.00 1.88 1.09 54 1012.4
20260506190504 16 2 4.8 11.3 0.00 1.88 1.09 56 1012.4
20260506190006 16 6 3.2 14.5 0.00 1.88 1.09 53 1012.4
20260506185505 16 18 8.0 14.5 0.00 1.88 1.09 54 1012.2
20260506185004 16 358 1.6 11.3 0.00 1.88 1.09 55 1012.4
20260506184004 16 29 6.4 9.7 0.00 1.88 1.09 58 1012.3
20260506183505 16 26 3.2 11.3 0.00 1.88 1.09 57 1012.5
20260506183004 16 10 6.4 11.3 0.00 1.88 1.09 56 1012.4
20260506182004 15 95 4.8 14.5 0.00 1.88 1.09 56 1012.2
20260506181504 15 52 4.8 14.5 0.00 1.88 1.09 55 1012.2
20260506181005 15 342 3.2 17.7 0.00 1.88 1.09 55 1012.4
20260506180505 15 346 8.0 17.7 0.00 1.88 1.09 54 1012.6
20260506180005 15 342 3.2 11.3 0.00 1.88 1.09 57 1012.4
20260506175004 15 1 6.4 11.3 0.00 1.88 1.09 56 1012.7
20260506174504 15 10 4.8 11.3 0.00 1.88 1.09 55 1012.6
20260506174003 15 79 3.2 11.3 0.00 1.88 1.09 58 1012.7
20260506173504 15 67 4.8 11.3 0.00 1.88 1.09 57 1012.7
20260506173004 15 18 9.7 11.3 0.00 1.88 1.09 59 1012.7
20260506172505 15 330 4.8 8.0 0.00 1.88 1.09 56 1012.9
20260506172004 15 219 4.8 11.3 0.00 1.88 1.09 61 1012.9
20260506171504 15 277 4.8 11.3 0.00 1.88 1.09 58 1012.8
20260506171005 15 352 9.7 11.3 0.00 1.88 1.09 57 1013.0
20260506170503 15 346 4.8 16.1 0.00 1.88 1.09 63 1012.9
20260506170004 15 357 8.0 16.1 0.00 1.88 1.09 57 1012.9
20260506165504 15 3 4.8 12.9 0.00 1.88 1.09 62 1013.1
20260506165005 15 340 6.4 12.9 0.00 1.88 1.09 63 1012.9
20260506164504 14 357 6.4 12.9 0.00 1.88 1.09 60 1013.2
20260506164005 14 8 4.8 9.7 0.00 1.88 1.09 63 1013.1
20260506163504 14 357 4.8 12.9 0.00 1.88 1.09 59 1013.0
20260506163005 14 354 1.6 12.9 0.00 1.88 1.09 64 1013.0
20260506162505 14 2 4.8 12.9 0.00 1.88 1.09 65 1012.7
20260506162004 14 349 4.8 11.3 0.00 1.88 1.09 64 1012.6
20260506161504 13 335 4.8 14.5 0.00 1.88 1.09 64 1012.7
20260506160005 14 347 3.2 8.0 0.00 1.88 1.09 69 1013.0
20260506155506 13 39 4.8 14.5 0.00 1.88 1.09 66 1012.9
20260506154504 13 111 4.8 11.3 0.00 1.88 1.09 66 1012.9
20260506154004 13 62 4.8 11.3 0.00 1.88 1.09 67 1012.8
20260506153504 13 6 9.7 11.3 0.00 1.88 1.09 66 1012.6
20260506153005 13 11 4.8 11.3 0.00 1.88 1.09 65 1012.5
20260506152504 13 54 6.4 11.3 0.00 1.88 1.09 67 1012.5
20260506152004 13 7 4.8 14.5 0.00 1.88 1.09 70 1012.5
20260506151504 12 347 4.8 14.5 0.00 1.88 1.09 68 1012.4
20260506150005 12 13 4.8 8.0 0.00 1.88 1.09 71 1012.2
20260506145505 12 19 4.8 8.0 0.00 1.88 1.09 69 1012.2
20260506145005 12 43 6.4 9.7 0.00 1.88 1.09 73 1012.1
20260506144005 12 27 1.6 11.3 0.00 1.88 1.09 77 1012.0